Weather History for KVJI - September, 2013

Change the Weather History Date:

Friday, September 13, 2013

  Actual Average (KTRI) Record (KTRI)
Temperature  
Mean Temperature 64 °F 68 °F  
Max Temperature 71 °F 80 °F 94 °F (1998)
Min Temperature 56 °F 56 °F 38 °F (1940)
Degree Days  
Heating Degree Days 2 1  
Month to date heating degree days 4  
Since 1 July heating degree days 5  
Cooling Degree Days 0 4  
Month to date cooling degree days 73  
Year to date cooling degree days 925  
Growing Degree Days 14 (Base 50)    
Moisture  
Dew Point 58 °F    
Average Humidity 78    
Maximum Humidity 100    
Minimum Humidity 49    
Precipitation  
Precipitation 0.00 in 0.11 in 1.83 in (1947)
Month to date precipitation 1.37  
Year to date precipitation 30.82  
Snow  
Snow 0.00 in 0.00 in - ()
Month to date snowfall 0.0  
Since 1 July snowfall 0.0  
Since 1 September snowfall 0.0  
Snow Depth -    
Sea Level Pressure  
Sea Level Pressure 29.97 in    
Wind  
Wind Speed 5 mph (NNW)    
Max Wind Speed 14 mph    
Max Gust Speed 21 mph    
Visibility 8 miles    
Events      
T = Trace of Precipitation, MM = Missing Value Source: NWS Daily Summary

Daily Weather History Graph

Daily Weather History Graph

Search for Another Location

Airport or City:

Trip Planner

Search our weather history database for the weather conditions in past years. The results will help you decide how hot, cold, wet, or windy it might be!

Date:

Astronomy

Sep. 13, 2013 Rise Set
Actual Time 7:09 AM EDT 7:38 PM EDT
Civil Twilight 6:43 AM EDT 8:04 PM EDT
Nautical Twilight 6:12 AM EDT 8:34 PM EDT
Astronomical Twilight 5:41 AM EDT 9:05 PM EDT
Moon 3:20 PM EDT (9/13) 12:44 AM EDT (9/13)
Length of Visible Light 13h 21m
Length of Day
12h 29m
First Quarter, 61% of the Moon is Illuminated
Sep 13
First Quarter
Sep 19
Full
Sep 26
Last Quarter
Oct 4
New
Oct 11
First Quarter

Hourly Weather History & Observations

Time (EDT) Temp. Dew Point Humidity Pressure Visibility Wind Dir Wind Speed Gust Speed Precip Events Conditions
12:15 AM 65.3 °F 65.3 °F 100% 29.99 in 5.0 mi West 3.5 mph - N/A   Overcast
12:35 AM 65.3 °F 65.3 °F 100% 29.98 in 5.0 mi West 4.6 mph - N/A   Overcast
12:55 AM 65.5 °F 65.5 °F 100% 29.98 in 4.0 mi West 4.6 mph - N/A   Overcast
1:15 AM 65.7 °F 65.7 °F 100% 29.97 in 2.5 mi West 5.8 mph - N/A   Overcast
1:35 AM 65.7 °F 65.7 °F 100% 29.95 in 4.0 mi West 4.6 mph - N/A   Overcast
1:55 AM 65.8 °F 65.8 °F 100% 29.95 in 3.0 mi West 8.1 mph - N/A   Overcast
2:15 AM 65.8 °F 65.8 °F 100% 29.95 in 1.8 mi West 4.6 mph - N/A   Overcast
2:35 AM 65.8 °F 65.8 °F 100% 29.95 in 1.8 mi WNW 8.1 mph - N/A   Overcast
2:55 AM 66.2 °F 66.2 °F 100% 29.95 in 2.5 mi NW 5.8 mph - N/A   Overcast
3:15 AM 66.2 °F 66.2 °F 100% 29.95 in 3.0 mi NW 4.6 mph - N/A   Overcast
3:35 AM 66.2 °F 66.2 °F 100% 29.95 in 5.0 mi WNW 3.5 mph - N/A   Overcast
3:55 AM 66.2 °F 66.2 °F 100% 29.94 in 7.0 mi West 4.6 mph - N/A   Overcast
4:15 AM 65.8 °F 65.8 °F 100% 29.94 in 7.0 mi West 3.5 mph - N/A   Overcast
4:35 AM 65.5 °F 65.5 °F 100% 29.93 in 10.0 mi West 3.5 mph - N/A   Overcast
4:55 AM 65.3 °F 65.3 °F 100% 29.94 in 10.0 mi Calm Calm - N/A   Overcast
5:15 AM 65.3 °F 65.3 °F 100% 29.94 in 7.0 mi West 3.5 mph - N/A   Overcast
5:35 AM 64.8 °F 64.8 °F 100% 29.94 in 7.0 mi Calm Calm - N/A   Mostly Cloudy
5:55 AM 64.6 °F 64.6 °F 100% 29.94 in 5.0 mi Calm Calm - N/A   Scattered Clouds
6:15 AM 63.9 °F 63.9 °F 100% 29.94 in 3.0 mi WNW 4.6 mph - N/A   Mostly Cloudy
6:35 AM 63.5 °F 63.5 °F 100% 29.95 in 3.0 mi NW 3.5 mph - N/A   Scattered Clouds
6:55 AM 64.0 °F 64.0 °F 100% 29.95 in 2.0 mi Calm Calm - N/A   Overcast
7:15 AM 63.9 °F 63.9 °F 100% 29.95 in 0.8 mi Calm Calm - N/A   Overcast
7:35 AM 63.7 °F 63.7 °F 100% 29.95 in 1.2 mi West 3.5 mph - N/A   Overcast
7:55 AM 63.9 °F 63.9 °F 100% 29.95 in 2.0 mi West 4.6 mph - N/A   Mostly Cloudy
8:15 AM 64.4 °F 64.4 °F 100% 29.95 in 3.0 mi West 4.6 mph - N/A   Scattered Clouds
8:35 AM 64.9 °F 64.9 °F 100% 29.95 in 5.0 mi WNW 4.6 mph - N/A   Scattered Clouds
8:55 AM 66.2 °F 66.0 °F 99% 29.95 in 10.0 mi NNW 5.8 mph - N/A   Mostly Cloudy
9:15 AM 66.6 °F 65.5 °F 96% 29.95 in 10.0 mi NNW 5.8 mph - N/A   Mostly Cloudy
9:35 AM 68.0 °F 64.8 °F 89% 29.95 in 10.0 mi NNW 5.8 mph - N/A   Mostly Cloudy
9:55 AM 68.9 °F 63.3 °F 82% 29.96 in 10.0 mi North 6.9 mph - N/A   Scattered Clouds
10:15 AM 69.1 °F 61.3 °F 76% 29.96 in 10.0 mi NNW 5.8 mph - N/A   Mostly Cloudy
10:35 AM 69.4 °F 61.0 °F 74% 29.97 in 10.0 mi NNW 8.1 mph - N/A   Mostly Cloudy
10:55 AM 69.4 °F 58.1 °F 67% 29.96 in 10.0 mi North 11.5 mph 18.4 mph N/A   Mostly Cloudy
11:15 AM 70.0 °F 57.9 °F 65% 29.97 in 10.0 mi North 9.2 mph - N/A   Scattered Clouds
11:35 AM 70.2 °F 58.1 °F 65% 29.97 in 10.0 mi NNW 13.8 mph 20.7 mph N/A   Scattered Clouds
11:55 AM 70.3 °F 57.4 °F 63% 29.97 in 10.0 mi North 10.4 mph 16.1 mph N/A   Scattered Clouds
12:15 PM 70.2 °F 55.6 °F 60% 29.97 in 10.0 mi NNW 10.4 mph 17.3 mph N/A   Scattered Clouds
12:35 PM 70.7 °F 55.6 °F 59% 29.97 in 10.0 mi North 4.6 mph - N/A   Clear
12:55 PM 71.1 °F 56.8 °F 61% 29.97 in 10.0 mi NNW 6.9 mph - N/A   Scattered Clouds
1:15 PM 70.9 °F 55.0 °F 57% 29.97 in 10.0 mi North 5.8 mph 17.3 mph N/A   Scattered Clouds
1:35 PM 71.6 °F 55.8 °F 57% 29.97 in 10.0 mi NNW 10.4 mph 16.1 mph N/A   Mostly Cloudy
1:55 PM 71.4 °F 54.5 °F 55% 29.96 in 10.0 mi NNW 13.8 mph 19.6 mph N/A   Scattered Clouds
2:15 PM 71.4 °F 53.1 °F 52% 29.96 in 10.0 mi North 5.8 mph 16.1 mph N/A   Clear
2:35 PM 71.1 °F 51.8 °F 50% 29.95 in 10.0 mi North 11.5 mph 16.1 mph N/A   Scattered Clouds
2:55 PM 71.6 °F 52.3 °F 51% 29.95 in 10.0 mi NW 10.4 mph - N/A   Clear
3:15 PM 71.4 °F 53.8 °F 54% 29.95 in 10.0 mi NW 9.2 mph - N/A   Scattered Clouds
3:35 PM 71.8 °F 51.8 °F 49% 29.95 in 10.0 mi North 6.9 mph 16.1 mph N/A   Scattered Clouds
3:55 PM 71.6 °F 52.0 °F 50% 29.95 in 10.0 mi North 6.9 mph - N/A   Scattered Clouds
4:15 PM 70.7 °F 52.3 °F 52% 29.95 in 10.0 mi North 6.9 mph - N/A   Scattered Clouds
4:35 PM 71.6 °F 52.5 °F 51% 29.95 in 10.0 mi NNW 6.9 mph - N/A   Scattered Clouds
4:55 PM 70.9 °F 51.3 °F 50% 29.95 in 10.0 mi North 8.1 mph - N/A   Scattered Clouds
5:15 PM 70.3 °F 52.0 °F 52% 29.95 in 10.0 mi North 8.1 mph - N/A   Clear
5:35 PM 68.7 °F 51.1 °F 53% 29.96 in 10.0 mi North 4.6 mph - N/A   Clear
5:55 PM 68.9 °F 51.6 °F 54% 29.96 in 10.0 mi NNW 5.8 mph - N/A   Clear
6:15 PM 68.2 °F 52.7 °F 58% 29.96 in 10.0 mi North 5.8 mph - N/A   Mostly Cloudy
6:35 PM 68.5 °F 51.6 °F 55% 29.96 in 10.0 mi North 3.5 mph - N/A   Scattered Clouds
6:55 PM 67.3 °F 51.6 °F 57% 29.96 in 10.0 mi North 3.5 mph - N/A   Clear
7:15 PM 66.2 °F 51.4 °F 59% 29.97 in 10.0 mi North 4.6 mph - N/A   Clear
7:35 PM 64.4 °F 52.2 °F 64% 29.98 in 10.0 mi North 3.5 mph - N/A   Clear
7:55 PM 63.5 °F 51.8 °F 66% 29.99 in 10.0 mi North 3.5 mph - N/A   Clear
8:15 PM 62.6 °F 52.2 °F 69% 29.99 in 10.0 mi North 3.5 mph - N/A   Clear
8:35 PM 61.7 °F 52.3 °F 71% 29.99 in 10.0 mi North 3.5 mph - N/A   Clear
8:55 PM 61.0 °F 52.3 °F 73% 30.00 in 10.0 mi North 4.6 mph - N/A   Clear
9:15 PM 60.8 °F 52.5 °F 74% 30.01 in 10.0 mi North 4.6 mph - N/A   Clear
9:35 PM 60.1 °F 52.7 °F 77% 30.02 in 10.0 mi North 3.5 mph - N/A   Clear
9:55 PM 59.7 °F 52.7 °F 78% 30.02 in 10.0 mi Calm Calm - N/A   Clear
10:15 PM 59.4 °F 52.7 °F 79% 30.02 in 10.0 mi NNE 4.6 mph - N/A   Clear
10:35 PM 59.0 °F 52.3 °F 79% 30.02 in 10.0 mi NE 5.8 mph - N/A   Clear
10:55 PM 58.3 °F 52.7 °F 82% 30.03 in 10.0 mi ENE 5.8 mph - N/A   Clear
11:15 PM 57.7 °F 52.7 °F 83% 30.03 in 10.0 mi ENE 6.9 mph - N/A   Clear
11:35 PM 56.8 °F 51.1 °F 81% 30.03 in 10.0 mi East 6.9 mph - N/A   Clear
11:55 PM 56.1 °F 50.9 °F 83% 30.03 in 10.0 mi East 5.8 mph - N/A   Clear